FW0014 Weather Reports


time (UTC)temp
C
wind
direction
speed
KPH
gust
KPH
rain 1hr
cm
rain 24hr
cm
rain mn
cm
humidity
%
barometer
mb
20260901211506 35 47 0.0 0.0 0.00 0.00 0.00 41 1012.7
20260901211326 35 52 0.0 0.0 0.00 0.00 0.00 42 1015.7
20260901211058 35 51 0.0 0.0 0.00 0.00 0.00 42 1012.8
20260901210843 35 48 0.0 0.0 0.00 0.00 0.00 42 1015.8
20260901210527 35 60 0.0 0.0 0.00 0.00 0.00 42 1012.9
20260901210319 35 116 0.0 0.0 0.00 0.00 0.00 42 1016.0
20260901210020 35 73 0.0 0.0 0.00 0.00 0.00 43 1013.0
20260901205816 35 102 0.0 0.0 0.00 0.00 0.00 43 1016.0
20260901205505 35 151 0.0 0.0 0.00 0.00 0.00 42 1013.0
20260901205400 35 148 0.0 0.0 0.00 0.00 0.00 42 1016.1
20260901205035 35 147 0.0 0.0 0.00 0.00 0.00 42 1013.1
20260901204830 35 156 0.0 0.0 0.00 0.00 0.00 42 1016.3
20260901204534 34 177 0.0 0.0 0.00 0.00 0.00 42 1013.2
20260901204327 35 197 0.0 0.0 0.00 0.00 0.00 42 1016.3
20260901204007 34 231 0.0 0.0 0.00 0.00 0.00 42 1013.2
20260901203824 34 231 0.0 0.0 0.00 0.00 0.00 43 1016.3
20260901203603 34 145 0.0 0.0 0.00 0.00 0.00 42 1013.3
20260901203342 34 142 0.0 0.0 0.00 0.00 0.00 43 1016.4
20260901203048 34 81 0.0 0.0 0.00 0.00 0.00 43 1013.3
20260901202819 34 128 0.0 0.0 0.00 0.00 0.00 44 1016.4
20260901202521 34 145 0.0 0.0 0.00 0.00 0.00 43 1013.4
20260901202337 34 68 0.0 0.0 0.00 0.00 0.00 44 1016.5
20260901202049 34 103 0.0 0.0 0.00 0.00 0.00 43 1013.5
20260901201831 35 137 0.0 0.0 0.00 0.00 0.00 43 1016.5
20260901201507 34 123 0.0 0.0 0.00 0.00 0.00 43 1013.5
20260901201344 35 129 0.0 0.0 0.00 0.00 0.00 44 1016.6
20260901201040 34 46 0.0 0.0 0.00 0.00 0.00 44 1013.5
20260901200820 35 82 0.0 0.0 0.00 0.00 0.00 43 1016.5
20260901200535 34 26 0.0 0.0 0.00 0.00 0.00 43 1013.5
20260901200318 34 157 0.0 0.0 0.00 0.00 0.00 43 1016.7
20260901200019 34 110 0.0 0.0 0.00 0.00 0.00 44 1013.5
20260901195814 34 113 0.0 0.0 0.00 0.00 0.00 44 1016.7
20260901195502 33 148 0.0 0.0 0.00 0.00 0.00 44 1013.7
20260901195331 34 145 0.0 0.0 0.00 0.00 0.00 44 1016.8
20260901195056 33 127 0.0 0.0 0.00 0.00 0.00 44 1013.9
20260901194829 34 162 0.0 0.0 0.00 0.00 0.00 44 1016.9
20260901194551 33 83 0.0 0.0 0.00 0.00 0.00 44 1013.9
20260901194328 34 118 0.0 0.0 0.00 0.00 0.00 45 1016.9
20260901194039 33 152 0.0 0.0 0.00 0.00 0.00 45 1014.0
20260901193824 34 170 0.0 0.0 0.00 0.00 0.00 45 1017.0
20260901193530 33 158 0.0 0.0 0.00 0.00 0.00 45 1014.0
20260901193321 34 137 0.0 0.0 0.00 0.00 0.00 46 1017.0
20260901193022 33 70 0.0 0.0 0.00 0.00 0.00 46 1014.0
20260901192839 34 88 0.0 0.0 0.00 0.00 0.00 46 1017.0
20260901192513 33 129 0.0 0.0 0.00 0.00 0.00 46 1014.1
20260901192330 33 123 0.0 0.0 0.00 0.00 0.00 46 1017.2
20260901192102 33 160 0.0 0.0 0.00 0.00 0.00 46 1014.2
20260901191829 34 118 0.0 0.0 0.00 0.00 0.00 46 1017.3
20260901191551 33 106 0.0 0.0 0.00 0.00 0.00 46 1014.2
20260901191326 34 128 0.0 0.0 0.00 0.00 0.00 46 1017.2
20260901191052 33 54 0.0 0.0 0.00 0.00 0.00 46 1014.2
20260901190825 33 52 0.0 0.0 0.00 0.00 0.00 46 1017.3
20260901190546 33 83 0.0 0.0 0.00 0.00 0.00 46 1014.3
20260901190323 33 107 0.0 0.0 0.00 0.00 0.00 46 1017.3
20260901190039 33 122 0.0 0.0 0.00 0.00 0.00 46 1014.3
20260901185839 33 46 0.0 0.0 0.00 0.00 0.00 46 1017.3
20260901185527 33 103 0.0 0.0 0.00 0.00 0.00 46 1014.4
20260901185330 33 100 0.0 0.0 0.00 0.00 0.00 46 1017.4
20260901185015 33 92 0.0 0.0 0.00 0.00 0.00 47 1014.5
20260901184847 33 104 0.0 0.0 0.00 0.00 0.00 46 1017.6
20260901184549 33 149 0.0 0.0 0.00 0.00 0.00 48 1014.6
20260901184343 33 52 0.0 0.0 0.00 0.00 0.00 47 1017.6
20260901184009 33 35 0.0 0.0 0.00 0.00 0.00 48 1014.7
20260901183843 33 83 0.0 0.0 0.00 0.00 0.00 47 1017.8
20260901183543 33 68 0.0 0.0 0.00 0.00 0.00 47 1014.8
20260901183321 33 51 0.0 0.0 0.00 0.00 0.00 47 1017.7
20260901183045 33 42 0.0 0.0 0.00 0.00 0.00 48 1014.8
20260901182818 33 84 0.0 0.0 0.00 0.00 0.00 48 1017.8
20260901182527 33 359 0.0 0.0 0.00 0.00 0.00 48 1014.9
20260901182318 33 101 0.0 0.0 0.00 0.00 0.00 48 1018.1
20260901182021 33 85 0.0 0.0 0.00 0.00 0.00 48 1015.1
20260901181815 33 100 0.0 0.0 0.00 0.00 0.00 49 1018.2
20260901181521 32 119 0.0 0.0 0.00 0.00 0.00 48 1015.2
20260901181353 33 119 0.0 0.0 0.00 0.00 0.00 48 1018.2
20260901181042 33 177 0.0 0.0 0.00 0.00 0.00 48 1015.3
20260901180830 33 110 0.0 0.0 0.00 0.00 0.00 48 1018.4
20260901180501 32 181 0.0 0.0 0.00 0.00 0.00 48 1015.4
20260901180328 33 156 0.0 0.0 0.00 0.00 0.00 48 1018.5
20260901180053 32 197 0.0 0.0 0.00 0.00 0.00 49 1015.5
20260901175825 33 151 0.0 0.0 0.00 0.00 0.00 48 1018.5
20260901175545 32 166 0.0 0.0 0.00 0.00 0.00 48 1015.6
20260901175345 33 53 0.0 0.0 0.00 0.00 0.00 48 1018.7
20260901175019 32 73 0.0 0.0 0.00 0.00 0.00 49 1015.6
20260901174820 33 145 0.0 0.0 0.00 0.00 0.00 49 1018.7
20260901174505 32 113 0.0 0.0 0.00 0.00 0.00 49 1015.5
20260901174319 33 85 0.0 0.0 0.00 0.00 0.00 49 1018.6
20260901174100 32 182 0.0 0.0 0.00 0.00 0.00 49 1015.7
20260901173838 33 140 0.0 0.0 0.00 0.00 0.00 49 1018.8
20260901173533 32 66 0.0 0.0 0.00 0.00 0.00 50 1015.7
20260901173315 32 106 0.0 0.0 0.00 0.00 0.00 50 1018.7
20260901173013 32 120 0.0 0.0 0.00 0.00 0.00 52 1015.7
20260901172848 32 174 0.0 0.0 0.00 0.00 0.00 52 1018.8
20260901172545 32 120 0.0 0.0 0.00 0.00 0.00 52 1015.7
20260901172344 32 134 0.0 0.0 0.00 0.00 0.00 52 1018.8
20260901172009 32 330 0.0 0.0 0.00 0.00 0.00 52 1015.9
20260901171840 32 118 0.0 0.0 0.00 0.00 0.00 53 1018.9
20260901171542 32 124 0.0 0.0 0.00 0.00 0.00 53 1016.0
20260901171315 32 179 0.0 0.0 0.00 0.00 0.00 52 1019.0
20260901171036 31 201 0.0 0.0 0.00 0.00 0.00 53 1016.0
20260901170853 32 198 0.0 0.0 0.00 0.00 0.00 53 1019.1
20260901170557 31 241 0.0 0.0 0.00 0.00 0.00 54 1016.2
20260901170331 32 215 0.0 0.0 0.00 0.00 0.00 54 1019.2
20260901170101 31 211 0.0 0.0 0.00 0.00 0.00 53 1016.4
20260901165829 32 168 0.0 0.0 0.00 0.00 0.00 54 1019.5
20260901165539 31 139 0.0 0.0 0.00 0.00 0.00 55 1016.4
20260901165325 31 354 0.0 0.0 0.00 0.00 0.00 54 1019.4
20260901165031 31 163 0.0 0.0 0.00 0.00 0.00 55 1016.5
20260901164825 31 172 0.0 0.0 0.00 0.00 0.00 55 1019.4
20260901164526 31 139 0.0 0.0 0.00 0.00 0.00 54 1016.5
20260901164321 31 154 0.0 0.0 0.00 0.00 0.00 54 1019.4
20260901164008 31 115 0.0 0.0 0.00 0.00 0.00 54 1016.4
20260901163818 31 139 0.0 0.0 0.00 0.00 0.00 56 1019.5
20260901163559 31 147 0.0 0.0 0.00 0.00 0.00 56 1016.5
20260901163400 31 236 0.0 0.0 0.00 0.00 0.00 58 1019.3
20260901163032 30 359 0.0 0.0 0.00 0.00 0.00 57 1016.4
20260901162830 31 194 0.0 0.0 0.00 0.00 0.00 57 1019.4
20260901162513 30 210 0.0 0.0 0.00 0.00 0.00 58 1016.4
20260901162326 31 217 0.0 0.0 0.00 0.00 0.00 59 1019.4
20260901162005 30 279 0.0 0.0 0.00 0.00 0.00 59 1016.4
20260901161847 30 246 0.0 0.0 0.00 0.00 0.00 59 1019.4
20260901161541 30 222 0.0 0.0 0.00 0.00 0.00 59 1016.5
20260901161322 30 218 0.0 0.0 0.00 0.00 0.00 58 1019.5
20260901161037 30 224 0.0 0.0 0.00 0.00 0.00 58 1016.5
20260901160840 30 181 0.0 0.0 0.00 0.00 0.00 59 1019.5
20260901160527 30 117 0.0 0.0 0.00 0.00 0.00 61 1016.5
20260901160332 30 124 0.0 0.0 0.00 0.00 0.00 61 1019.4
20260901160010 30 226 0.0 0.0 0.00 0.00 0.00 61 1016.5
20260901155828 30 68 0.0 0.0 0.00 0.00 0.00 61 1019.4
20260901155601 30 169 0.0 0.0 0.00 0.00 0.00 63 1016.5
20260901155324 30 218 0.0 0.0 0.00 0.00 0.00 63 1019.4
20260901155053 29 218 0.0 0.0 0.00 0.00 0.00 62 1016.4
20260901154841 30 159 0.0 0.0 0.00 0.00 0.00 62 1019.4
20260901154524 29 138 0.0 0.0 0.00 0.00 0.00 63 1016.5
20260901154317 30 126 0.0 0.0 0.00 0.00 0.00 63 1019.4
20260901154015 29 170 0.0 0.0 0.00 0.00 0.00 64 1016.5
20260901153815 29 152 0.0 0.0 0.00 0.00 0.00 64 1019.4
20260901153540 29 131 0.0 0.0 0.00 0.00 0.00 65 1016.5
20260901153331 29 133 0.0 0.0 0.00 0.00 0.00 65 1019.5
20260901153033 28 134 0.0 0.0 0.00 0.00 0.00 65 1016.5
20260901152851 29 174 0.0 0.0 0.00 0.00 0.00 66 1019.5
20260901152553 28 146 0.0 0.0 0.00 0.00 0.00 67 1016.5
20260901152329 28 147 0.0 0.0 0.00 0.00 0.00 67 1019.5
20260901152045 28 230 0.0 0.0 0.00 0.00 0.00 68 1016.5
20260901151825 28 213 0.0 0.0 0.00 0.00 0.00 68 1019.6
20260901151535 28 116 0.0 0.0 0.00 0.00 0.00 69 1016.6
20260901151323 28 197 0.0 0.0 0.00 0.00 0.00 70 1019.5
20260901151026 28 220 0.0 0.0 0.00 0.00 0.00 70 1016.5
20260901150820 28 136 0.0 0.0 0.00 0.00 0.00 72 1019.4
20260901150517 27 246 0.0 0.0 0.00 0.00 0.00 72 1016.6
20260901150319 27 246 0.0 0.0 0.00 0.00 0.00 73 1019.6
20260901150107 27 247 0.0 0.0 0.00 0.00 0.00 73 1016.6
20260901145851 27 188 0.0 0.0 0.00 0.00 0.00 73 1019.6
20260901145533 27 183 0.0 0.0 0.00 0.00 0.00 74 1016.7
20260901145330 27 168 0.0 0.0 0.00 0.00 0.00 74 1019.6
20260901145014 27 244 0.0 0.0 0.00 0.00 0.00 76 1016.8
20260901144829 27 243 0.0 0.0 0.00 0.00 0.00 76 1019.6
20260901144507 26 255 0.0 0.0 0.00 0.00 0.00 76 1016.7
20260901144326 27 259 0.0 0.0 0.00 0.00 0.00 76 1019.7
20260901144101 26 232 0.0 0.0 0.00 0.00 0.00 76 1016.8
20260901143844 26 267 0.0 0.0 0.00 0.00 0.00 77 1019.7
20260901143531 26 237 0.0 0.0 0.00 0.00 0.00 77 1016.8
20260901143322 26 239 0.0 0.0 0.00 0.00 0.00 77 1019.7
20260901143023 26 212 0.0 0.0 0.00 0.00 0.00 77 1016.7
20260901142819 26 212 0.0 0.0 0.00 0.00 0.00 77 1019.8
20260901142504 26 213 0.0 0.0 0.00 0.00 0.00 77 1016.8
20260901142316 26 213 0.0 0.0 0.00 0.00 0.00 78 1019.8
20260901142057 26 199 0.0 0.0 0.00 0.00 0.00 78 1016.9
20260901141853 26 241 0.0 0.0 0.00 0.00 0.00 79 1019.8
20260901141517 26 222 0.0 0.0 0.00 0.00 0.00 79 1016.9
20260901141351 26 222 0.0 0.0 0.00 0.00 0.00 79 1019.7
20260901141049 25 224 0.0 0.0 0.00 0.00 0.00 79 1016.9
20260901140829 26 224 0.0 0.0 0.00 0.00 0.00 79 1019.8
20260901140540 25 224 0.0 0.0 0.00 0.00 0.00 80 1017.0
20260901140326 25 224 0.0 0.0 0.00 0.00 0.00 80 1019.7
20260901140042 25 224 0.0 0.0 0.00 0.00 0.00 80 1016.8
20260901135822 25 261 0.0 0.0 0.00 0.00 0.00 81 1019.7
20260901135555 25 261 0.0 0.0 0.00 0.00 0.00 81 1016.8
20260901135339 25 261 0.0 0.0 0.00 0.00 0.00 81 1019.7
20260901135042 25 261 0.0 0.0 0.00 0.00 0.00 81 1016.7
20260901134831 25 261 0.0 0.0 0.00 0.00 0.00 81 1019.7
20260901134537 24 261 0.0 0.0 0.00 0.00 0.00 81 1016.7
20260901134329 25 261 0.0 0.0 0.00 0.00 0.00 82 1019.6
20260901134019 24 208 0.0 0.0 0.00 0.00 0.00 82 1016.7
20260901133844 24 208 0.0 0.0 0.00 0.00 0.00 82 1019.7
20260901133547 24 208 0.0 0.0 0.00 0.00 0.00 82 1016.6
20260901133323 24 208 0.0 0.0 0.00 0.00 0.00 83 1019.5
20260901133046 23 208 0.0 0.0 0.00 0.00 0.00 83 1016.6
20260901132820 23 208 0.0 0.0 0.00 0.00 0.00 83 1019.5
20260901132529 23 208 0.0 0.0 0.00 0.00 0.00 83 1016.7
20260901132317 23 208 0.0 0.0 0.00 0.00 0.00 83 1019.5
20260901132021 23 208 0.0 1.6 0.00 0.00 0.00 83 1016.7
20260901131814 23 208 0.0 1.6 0.00 0.00 0.00 83 1019.6
20260901131548 23 208 0.0 1.6 0.00 0.00 0.00 83 1016.7
20260901131330 23 208 0.0 1.6 0.00 0.00 0.00 83 1019.5
20260901131042 22 208 0.0 1.6 0.00 0.00 0.00 83 1016.6
20260901130828 23 208 0.0 1.6 0.00 0.00 0.00 83 1019.5
20260901130538 22 208 0.0 1.6 0.00 0.00 0.00 83 1016.5
20260901130325 22 208 0.0 0.0 0.00 0.00 0.00 83 1019.4
20260901130043 22 208 0.0 0.0 0.00 0.00 0.00 82 1016.4
20260901125825 22 208 0.0 0.0 0.00 0.00 0.00 82 1019.2
20260901125530 22 208 0.0 1.6 0.00 0.00 0.00 82 1016.4
20260901125321 22 208 0.0 1.6 0.00 0.00 0.00 82 1019.2
20260901125056 22 208 0.0 1.6 0.00 0.00 0.00 82 1016.2
20260901124819 22 208 0.0 1.6 0.00 0.00 0.00 82 1019.1
20260901124547 22 208 0.0 3.2 0.00 0.00 0.00 82 1016.2
20260901124317 22 208 0.0 3.2 0.00 0.00 0.00 82 1019.1
20260901124040 22 208 0.0 3.2 0.00 0.00 0.00 83 1016.2
20260901123816 22 208 1.6 3.2 0.00 0.00 0.00 83 1019.1
20260901123533 22 208 0.0 3.2 0.00 0.00 0.00 83 1016.2
20260901123318 22 208 0.0 3.2 0.00 0.00 0.00 83 1019.2
20260901123027 22 208 0.0 3.2 0.00 0.00 0.00 82 1016.2
20260901122815 22 208 0.0 3.2 0.00 0.00 0.00 82 1019.0
20260901122511 22 208 0.0 1.6 0.00 0.00 0.00 82 1016.0
20260901122332 22 208 0.0 1.6 0.00 0.00 0.00 82 1018.9
20260901122007 22 208 0.0 0.0 0.00 0.00 0.00 82 1015.8
20260901121846 22 208 0.0 0.0 0.00 0.00 0.00 82 1018.7
20260901121537 22 208 0.0 3.2 0.00 0.00 0.00 81 1015.8
20260901121324 22 208 0.0 3.2 0.00 0.00 0.00 81 1018.7
20260901121031 22 208 0.0 3.2 0.00 0.00 0.00 81 1015.7
20260901120823 22 208 1.6 3.2 0.00 0.00 0.00 81 1018.7
20260901120525 22 208 0.0 3.2 0.00 0.00 0.00 81 1015.8
20260901120340 22 208 1.6 3.2 0.00 0.00 0.00 81 1018.8
20260901120055 22 208 1.6 3.2 0.00 0.00 0.00 81 1015.8
20260901115817 22 208 1.6 3.2 0.00 0.00 0.00 80 1018.8
20260901115540 22 208 0.0 3.2 0.00 0.00 0.00 80 1015.8
20260901115313 23 208 1.6 3.2 0.00 0.00 0.00 80 1018.6
20260901115035 22 208 1.6 3.2 0.00 0.00 0.00 80 1015.7
20260901114850 23 208 0.0 1.6 0.00 0.00 0.00 80 1018.6
20260901114601 22 208 0.0 0.0 0.00 0.00 0.00 80 1015.7
20260901114329 23 208 0.0 0.0 0.00 0.00 0.00 81 1018.6
20260901114050 22 208 0.0 0.0 0.00 0.00 0.00 80 1015.7
20260901113829 23 208 0.0 0.0 0.00 0.00 0.00 80 1018.7
20260901113541 23 208 0.0 3.2 0.00 0.00 0.00 79 1015.6
20260901113329 23 208 0.0 3.2 0.00 0.00 0.00 79 1018.7
20260901113033 23 208 0.0 3.2 0.00 0.00 0.00 80 1015.7
20260901112826 23 208 1.6 3.2 0.00 0.00 0.00 80 1018.6
20260901112556 23 208 0.0 3.2 0.00 0.00 0.00 80 1015.7
20260901112325 23 208 1.6 3.2 0.00 0.00 0.00 80 1018.7
20260901112048 23 208 0.0 3.2 0.00 0.00 0.00 80 1015.7
20260901111823 23 208 0.0 3.2 0.00 0.00 0.00 79 1018.6
20260901111546 23 208 0.0 3.2 0.00 0.00 0.00 79 1015.6
20260901111321 23 208 0.0 3.2 0.00 0.00 0.00 80 1018.5
20260901111035 23 208 0.0 3.2 0.00 0.00 0.00 80 1015.7
20260901110820 23 208 1.6 3.2 0.00 0.00 0.00 80 1018.6
20260901110526 23 208 0.0 3.2 0.00 0.00 0.00 79 1015.6
20260901110317 23 208 1.6 3.2 0.00 0.00 0.00 79 1018.5
20260901110019 23 208 0.0 3.2 0.00 0.00 0.00 79 1015.6
20260901105815 23 208 0.0 3.2 0.00 0.00 0.00 79 1018.6
20260901105505 23 208 0.0 3.2 0.00 0.00 0.00 79 1015.6
20260901105314 23 208 1.6 3.2 0.00 0.00 0.00 79 1018.6
20260901105101 23 208 1.6 3.2 0.00 0.00 0.00 79 1015.7
20260901104831 23 208 1.6 3.2 0.00 0.00 0.00 78 1018.6
20260901104554 23 208 1.6 3.2 0.00 0.00 0.00 78 1015.7
20260901104327 23 208 1.6 3.2 0.00 0.00 0.00 78 1018.7
20260901104041 23 208 1.6 4.8 0.00 0.00 0.00 78 1015.7
20260901103823 24 208 1.6 4.8 0.00 0.00 0.00 78 1018.7
20260901103506 23 208 1.6 4.8 0.00 0.00 0.00 77 1015.6
20260901103340 24 208 3.2 4.8 0.00 0.00 0.00 77 1018.5
20260901103037 24 208 3.2 4.8 0.00 0.00 0.00 77 1015.5
20260901102816 24 208 4.8 4.8 0.00 0.00 0.00 77 1018.4
20260901102530 24 208 0.0 3.2 0.00 0.00 0.00 77 1015.4
20260901102333 25 208 0.0 3.2 0.00 0.00 0.00 76 1018.3
20260901102011 24 208 0.0 9.7 0.00 0.00 0.00 76 1015.3
20260901101830 25 208 1.6 9.7 0.00 0.00 0.00 76 1018.3
20260901101502 24 208 1.6 9.7 0.00 0.00 0.00 76 1015.3
20260901101326 25 208 4.8 9.7 0.00 0.00 0.00 76 1018.3
20260901101058 24 210 3.2 8.0 0.00 0.00 0.00 76 1015.4
20260901100823 25 217 4.8 8.0 0.00 0.00 0.00 76 1018.4
20260901100548 24 216 4.8 8.0 0.00 0.00 0.00 76 1015.4
20260901100321 25 223 4.8 9.7 0.00 0.00 0.00 76 1018.3
20260901100043 24 219 4.8 9.7 0.00 0.00 0.00 76 1015.4
20260901095838 25 216 4.8 9.7 0.00 0.00 0.00 76 1018.4
20260901095513 25 214 4.8 8.0 0.00 0.00 0.00 76 1015.5
20260901095314 25 207 6.4 8.0 0.00 0.00 0.00 75 1018.4
20260901095058 25 220 3.2 8.0 0.00 0.00 0.00 75 1015.4
20260901094833 25 218 4.8 8.0 0.00 0.00 0.00 75 1018.2
20260901094551 25 218 4.8 9.7 0.00 0.00 0.00 75 1015.2
20260901094330 25 213 4.8 9.7 0.00 0.00 0.00 75 1018.3
20260901094041 25 182 4.8 9.7 0.00 0.00 0.00 75 1015.4
20260901093829 25 187 4.8 6.4 0.00 0.00 0.00 75 1018.3
20260901093537 25 187 3.2 6.4 0.00 0.00 0.00 75 1015.4
20260901093327 25 187 4.8 8.0 0.00 0.00 0.00 75 1018.4
20260901093022 25 187 3.2 9.7 0.00 0.00 0.00 75 1015.4
20260901092825 25 187 4.8 9.7 0.00 0.00 0.00 75 1018.5
20260901092502 25 187 4.8 9.7 0.00 0.00 0.00 75 1015.6
20260901092322 25 186 4.8 8.0 0.00 0.00 0.00 75 1018.5
20260901092059 25 186 4.8 8.0 0.00 0.00 0.00 75 1015.6
20260901091821 25 186 4.8 8.0 0.00 0.00 0.00 75 1018.6
20260901091547 25 186 4.8 8.0 0.00 0.00 0.00 75 1015.6
20260901091319 25 186 4.8 8.0 0.00 0.00 0.00 75 1018.6
20260901091036 25 183 3.2 8.0 0.00 0.00 0.00 74 1015.6
20260901090816 25 186 4.8 8.0 0.00 0.00 0.00 74 1018.5
20260901090528 25 189 4.8 8.0 0.00 0.00 0.00 74 1015.6
20260901090314 26 191 3.2 9.7 0.00 0.00 0.00 74 1018.7
20260901090012 25 167 4.8 9.7 0.00 0.00 0.00 74 1015.7
20260901085831 26 191 4.8 9.7 0.00 0.00 0.00 74 1018.7
20260901085503 25 191 6.4 9.7 0.00 0.00 0.00 74 1015.7
20260901085348 26 191 4.8 9.7 0.00 0.00 0.00 74 1018.7
20260901085034 25 209 4.8 9.7 0.00 0.00 0.00 74 1015.7
20260901084825 26 195 6.4 12.9 0.00 0.00 0.00 74 1018.6
20260901084524 26 194 3.2 12.9 0.00 0.00 0.00 74 1015.7
20260901084323 26 208 4.8 12.9 0.00 0.00 0.00 74 1018.7
20260901084006 26 204 3.2 8.0 0.00 0.00 0.00 74 1015.8
20260901083822 26 204 4.8 9.7 0.00 0.00 0.00 74 1018.7
20260901083600 26 178 3.2 9.7 0.00 0.00 0.00 74 1015.7
20260901083321 26 174 3.2 9.7 0.00 0.00 0.00 74 1018.6
20260901083051 26 174 4.8 9.7 0.00 0.00 0.00 74 1015.7
20260901082818 26 183 4.8 9.7 0.00 0.00 0.00 74 1018.6
20260901082542 26 192 4.8 9.7 0.00 0.00 0.00 74 1015.6
20260901082315 26 193 4.8 9.7 0.00 0.00 0.00 74 1018.5
20260901082035 26 193 4.8 9.7 0.00 0.00 0.00 74 1015.5
20260901081814 26 193 4.8 9.7 0.00 0.00 0.00 74 1018.5
20260901081516 26 193 3.2 9.7 0.00 0.00 0.00 73 1015.4
20260901081329 26 193 4.8 9.7 0.00 0.00 0.00 73 1018.4
20260901081006 26 193 4.8 11.3 0.00 0.00 0.00 73 1015.4
20260901080826 26 179 4.8 11.3 0.00 0.00 0.00 73 1018.3
20260901080601 26 205 4.8 11.3 0.00 0.00 0.00 73 1015.3
20260901080324 26 196 6.4 11.3 0.00 0.00 0.00 73 1018.3
20260901080052 26 195 4.8 16.1 0.00 0.00 0.00 73 1015.3
20260901075821 26 195 4.8 16.1 0.00 0.00 0.00 73 1018.2
20260901075545 26 181 6.4 16.1 0.00 0.00 0.00 73 1015.3
20260901075318 26 183 9.7 16.1 0.00 0.00 0.00 73 1018.2
20260901075036 26 177 8.0 16.1 0.00 0.00 0.00 73 1015.3
20260901074816 27 185 9.7 16.1 0.00 0.00 0.00 73 1018.2
20260901074518 26 172 8.0 14.5 0.00 0.00 0.00 72 1015.2
20260901074353 27 204 9.7 14.5 0.00 0.00 0.00 72 1018.1
20260901074054 26 242 8.0 14.5 0.00 0.00 0.00 72 1015.1
20260901073829 27 181 8.0 14.5 0.00 0.00 0.00 72 1018.1
20260901073540 26 199 8.0 17.7 0.00 0.00 0.00 72 1015.3
20260901073346 27 179 8.0 17.7 0.00 0.00 0.00 72 1018.2
20260901073003 27 201 9.7 19.3 0.00 0.00 0.00 72 1015.2
20260901072822 27 183 9.7 17.7 0.00 0.00 0.00 72 1018.1
20260901072556 27 195 9.7 17.7 0.00 0.00 0.00 71 1015.1
20260901072340 27 202 11.3 17.7 0.00 0.00 0.00 71 1018.1
20260901072045 27 201 11.3 19.3 0.00 0.00 0.00 71 1015.2
20260901071831 27 171 12.9 19.3 0.00 0.00 0.00 71 1018.3
20260901071534 27 193 8.0 17.7 0.00 0.00 0.00 71 1015.3
20260901071351 27 204 11.3 17.7 0.00 0.00 0.00 71 1018.2
20260901071056 27 197 9.7 20.9 0.00 0.00 0.00 71 1015.3
20260901070827 27 181 11.3 20.9 0.00 0.00 0.00 71 1018.2
20260901070553 27 187 11.3 20.9 0.00 0.00 0.00 71 1015.3
20260901070325 27 179 9.7 16.1 0.00 0.00 0.00 71 1018.2
20260901070050 27 166 9.7 16.1 0.00 0.00 0.00 71 1015.3
20260901065823 27 202 9.7 16.1 0.00 0.00 0.00 71 1018.2
20260901065546 27 231 6.4 16.1 0.00 0.00 0.00 70 1015.2
20260901065321 27 166 11.3 16.1 0.00 0.00 0.00 70 1018.2
20260901065040 27 194 9.7 14.5 0.00 0.00 0.00 70 1015.3
20260901064840 27 198 9.7 14.5 0.00 0.00 0.00 70 1018.3
20260901064532 27 186 6.4 16.1 0.00 0.00 0.00 70 1015.3
20260901064331 27 187 8.0 16.1 0.00 0.00 0.00 70 1018.1
20260901064016 27 197 6.4 16.1 0.00 0.00 0.00 69 1015.2
20260901063830 27 168 6.4 16.1 0.00 0.00 0.00 69 1018.2
20260901063511 27 200 4.8 14.5 0.00 0.00 0.00 69 1015.2
20260901063327 27 172 6.4 14.5 0.00 0.00 0.00 69 1018.2
20260901063104 27 179 8.0 12.9 0.00 0.00 0.00 69 1015.2
20260901062823 27 161 8.0 16.1 0.00 0.00 0.00 68 1018.1
20260901062537 27 157 8.0 16.1 0.00 0.00 0.00 68 1015.1
20260901062321 27 157 9.7 16.1 0.00 0.00 0.00 68 1018.1
20260901062028 27 174 11.3 16.1 0.00 0.00 0.00 67 1015.1
20260901061817 27 156 9.7 17.7 0.00 0.00 0.00 67 1018.1
20260901061522 27 170 8.0 14.5 0.00 0.00 0.00 66 1015.1
20260901061337 27 188 9.7 14.5 0.00 0.00 0.00 66 1018.1
20260901061013 27 161 8.0 14.5 0.00 0.00 0.00 66 1015.1
20260901060830 27 186 9.7 14.5 0.00 0.00 0.00 66 1018.1
20260901060556 27 184 8.0 14.5 0.00 0.00 0.00 65 1015.0
20260901060327 27 185 8.0 14.5 0.00 0.00 0.00 65 1018.0
20260901060050 27 193 8.0 14.5 0.00 0.00 0.00 65 1014.9
20260901055822 27 170 8.0 16.1 0.00 0.00 0.00 64 1017.8
20260901055526 27 191 11.3 16.1 0.00 0.00 0.00 64 1014.9
20260901055320 27 152 11.3 16.1 0.00 0.00 0.00 64 1017.9
20260901055020 27 166 11.3 16.1 0.00 0.00 0.00 64 1014.9
20260901054818 27 179 11.3 14.5 0.00 0.00 0.00 63 1017.9
20260901054510 27 166 8.0 16.1 0.00 0.00 0.00 63 1014.8
20260901054336 27 169 9.7 16.1 0.00 0.00 0.00 62 1017.8
20260901054038 27 162 9.7 16.1 0.00 0.00 0.00 62 1015.0
20260901053814 27 156 8.0 14.5 0.00 0.00 0.00 62 1017.9
20260901053530 27 158 9.7 14.5 0.00 0.00 0.00 62 1015.0
20260901053331 27 139 9.7 14.5 0.00 0.00 0.00 61 1017.9
20260901053013 27 141 8.0 14.5 0.00 0.00 0.00 61 1015.0
20260901052850 27 173 9.7 14.5 0.00 0.00 0.00 61 1017.9
20260901052545 27 149 9.7 12.9 0.00 0.00 0.00 61 1014.9
20260901052326 27 162 9.7 11.3 0.00 0.00 0.00 61 1017.8
20260901052040 27 168 6.4 14.5 0.00 0.00 0.00 61 1014.9
20260901051824 27 158 8.0 14.5 0.00 0.00 0.00 61 1017.7
20260901051538 27 169 3.2 14.5 0.00 0.00 0.00 61 1014.9
20260901051322 27 187 8.0 14.5 0.00 0.00 0.00 61 1017.7
20260901051025 26 158 8.0 14.5 0.00 0.00 0.00 61 1014.7
20260901050820 27 157 6.4 11.3 0.00 0.00 0.00 61 1017.6
20260901050517 26 188 6.4 12.9 0.00 0.00 0.00 61 1014.8
20260901050337 27 172 8.0 12.9 0.00 0.00 0.00 61 1017.7
20260901050044 26 152 8.0 12.9 0.00 0.00 0.00 61 1014.7
20260901045817 26 157 9.7 11.3 0.00 0.00 0.00 61 1017.6
20260901045602 26 150 4.8 11.3 0.00 0.00 0.00 61 1014.7
20260901045333 26 162 6.4 11.3 0.00 0.00 0.00 61 1017.6
20260901045034 26 177 4.8 9.7 0.00 0.00 0.00 61 1014.8
20260901044851 26 171 6.4 9.7 0.00 0.00 0.00 61 1017.6
20260901044606 26 166 6.4 9.7 0.00 0.00 0.00 61 1014.8
20260901044330 26 151 6.4 9.7 0.00 0.00 0.00 61 1017.5
20260901044044 26 181 6.4 9.7 0.00 0.00 0.00 61 1014.7
20260901043826 26 160 6.4 9.7 0.00 0.00 0.00 61 1017.5
20260901043537 26 177 4.8 9.7 0.00 0.00 0.00 61 1014.6
20260901043324 26 173 4.8 9.7 0.00 0.00 0.00 61 1017.5
20260901043029 26 154 3.2 8.0 0.00 0.00 0.00 62 1014.5
20260901042821 26 154 3.2 4.8 0.00 0.00 0.00 61 1017.4
20260901042521 26 154 3.2 4.8 0.00 0.00 0.00 61 1014.5
20260901042339 26 154 4.8 4.8 0.00 0.00 0.00 61 1017.4
20260901042059 26 154 1.6 4.8 0.00 0.00 0.00 61 1014.5
20260901041830 26 154 1.6 3.2 0.00 0.00 0.00 61 1017.5
20260901041550 26 154 0.0 4.8 0.00 0.00 0.00 61 1014.5
20260901041329 26 154 1.6 4.8 0.00 0.00 0.00 61 1017.4
20260901041040 26 154 1.6 4.8 0.00 0.00 0.00 60 1014.5
20260901040826 26 154 1.6 3.2 0.00 0.00 0.00 60 1017.4
20260901040533 26 154 0.0 0.0 0.00 0.00 0.00 60 1014.5
20260901040323 26 154 0.0 0.0 0.00 0.00 0.00 60 1017.4
20260901040034 26 154 0.0 1.6 0.00 0.00 0.00 59 1014.3
20260901035822 26 154 0.0 3.2 0.00 0.00 0.00 59 1017.3
20260901035534 26 154 0.0 3.2 0.00 0.00 0.00 59 1014.5
20260901035320 26 154 0.0 3.2 0.00 0.00 0.00 59 1017.4
20260901035030 26 154 1.6 3.2 0.00 0.00 0.00 59 1014.5
20260901034839 27 154 3.2 3.2 0.00 0.00 0.00 60 1017.3
20260901034525 26 154 0.0 3.2 0.00 0.00 0.00 58 1014.4
20260901034330 27 154 0.0 3.2 0.00 0.00 0.00 58 1017.4
20260901034004 27 154 1.6 3.2 0.00 0.00 0.00 58 1014.5
20260901033829 27 154 1.6 3.2 0.00 0.00 0.00 57 1017.4
20260901033558 27 154 1.6 3.2 0.00 0.00 0.00 57 1014.4
20260901033329 27 154 3.2 3.2 0.00 0.00 0.00 57 1017.4
20260901033050 27 154 1.6 3.2 0.00 0.00 0.00 57 1014.4
20260901032829 27 154 3.2 3.2 0.00 0.00 0.00 57 1017.3
20260901032542 27 154 1.6 3.2 0.00 0.00 0.00 56 1014.5
20260901032329 27 154 3.2 3.2 0.00 0.00 0.00 56 1017.4
20260901032040 27 154 1.6 3.2 0.00 0.00 0.00 56 1014.4
20260901031829 27 154 3.2 4.8 0.00 0.00 0.00 56 1017.3
20260901031533 27 154 1.6 4.8 0.00 0.00 0.00 55 1014.4
20260901031329 27 154 1.6 4.8 0.00 0.00 0.00 55 1017.3
20260901031014 27 154 1.6 4.8 0.00 0.00 0.00 55 1014.4
20260901030830 28 154 3.2 4.8 0.00 0.00 0.00 55 1017.3
20260901030506 27 154 1.6 8.0 0.00 0.00 0.00 55 1014.4
20260901030330 28 154 3.2 8.0 0.00 0.00 0.00 54 1017.2
20260901030100 27 154 3.2 8.0 0.00 0.00 0.00 54 1014.2
20260901025830 28 154 4.8 6.4 0.00 0.00 0.00 54 1017.0
20260901025554 28 154 1.6 3.2 0.00 0.00 0.00 54 1014.1
20260901025329 28 154 3.2 3.2 0.00 0.00 0.00 54 1017.0
20260901025046 28 154 1.6 3.2 0.00 0.00 0.00 53 1014.0
20260901024829 28 154 1.6 3.2 0.00 0.00 0.00 53 1017.0
20260901024536 28 154 0.0 1.6 0.00 0.00 0.00 53 1013.9
20260901024329 28 154 0.0 1.6 0.00 0.00 0.00 52 1016.8
20260901024030 28 154 0.0 3.2 0.00 0.00 0.00 52 1013.8
20260901023847 28 154 0.0 3.2 0.00 0.00 0.00 52 1016.8
20260901023556 28 154 0.0 3.2 0.00 0.00 0.00 52 1013.8
20260901023325 29 154 1.6 3.2 0.00 0.00 0.00 52 1016.7
20260901023059 28 154 1.6 3.2 0.00 0.00 0.00 51 1013.8
20260901022824 29 154 1.6 3.2 0.00 0.00 0.00 51 1016.8
20260901022538 29 154 0.0 3.2 0.00 0.00 0.00 51 1013.8
20260901022323 29 154 1.6 3.2 0.00 0.00 0.00 51 1016.7
20260901022032 29 154 1.6 4.8 0.00 0.00 0.00 51 1013.7
20260901021842 29 154 3.2 4.8 0.00 0.00 0.00 51 1016.7
20260901021556 29 154 1.6 4.8 0.00 0.00 0.00 50 1013.6
20260901021319 30 154 1.6 4.8 0.00 0.00 0.00 50 1016.5
20260901021047 29 153 1.6 3.2 0.00 0.00 0.00 50 1013.6
20260901020816 30 154 3.2 3.2 0.00 0.00 0.00 50 1016.5
20260901020514 30 154 1.6 3.2 0.00 0.00 0.00 49 1013.4
20260901020315 30 154 1.6 3.2 0.00 0.00 0.00 49 1016.5
20260901020004 30 154 0.0 3.2 0.00 0.00 0.00 49 1013.4
20260901015852 30 154 1.6 3.2 0.00 0.00 0.00 49 1016.4
20260901015536 30 154 1.6 3.2 0.00 0.00 0.00 49 1013.3
20260901015332 30 154 1.6 3.2 0.00 0.00 0.00 49 1016.4
20260901015029 30 154 1.6 3.2 0.00 0.00 0.00 49 1013.3
20260901014829 30 154 1.6 3.2 0.00 0.00 0.00 49 1016.4
20260901014557 30 154 0.0 3.2 0.00 0.00 0.00 48 1013.2
20260901014350 30 154 0.0 3.2 0.00 0.00 0.00 48 1016.3
20260901014014 30 154 1.6 3.2 0.00 0.00 0.00 48 1013.2
20260901013829 31 154 1.6 3.2 0.00 0.00 0.00 48 1016.2
20260901013506 30 154 0.0 0.0 0.00 0.00 0.00 47 1013.1
20260901013329 31 154 0.0 0.0 0.00 0.00 0.00 47 1016.1
20260901013058 31 154 0.0 0.0 0.00 0.00 0.00 47 1013.1
20260901012829 31 154 0.0 0.0 0.00 0.00 0.00 47 1016.1
20260901012551 31 154 0.0 0.0 0.00 0.00 0.00 47 1013.0
20260901012329 31 153 0.0 0.0 0.00 0.00 0.00 46 1016.1
20260901012040 31 154 0.0 0.0 0.00 0.00 0.00 46 1013.1
20260901011829 31 154 0.0 0.0 0.00 0.00 0.00 46 1016.1
20260901011530 31 154 0.0 0.0 0.00 0.00 0.00 46 1013.1
20260901011342 31 154 0.0 0.0 0.00 0.00 0.00 46 1016.1
20260901011056 31 154 0.0 0.0 0.00 0.00 0.00 45 1013.1
20260901010820 32 152 0.0 0.0 0.00 0.00 0.00 45 1016.0
20260901010548 31 147 0.0 0.0 0.00 0.00 0.00 45 1013.0
20260901010339 32 147 0.0 0.0 0.00 0.00 0.00 45 1016.0
20260901010036 32 145 0.0 0.0 0.00 0.00 0.00 45 1013.0
20260901005831 32 147 0.0 0.0 0.00 0.00 0.00 44 1016.0
20260901005534 32 154 0.0 0.0 0.00 0.00 0.00 44 1013.0
20260901005328 32 139 0.0 0.0 0.00 0.00 0.00 44 1016.0
20260901005030 32 147 0.0 0.0 0.00 0.00 0.00 44 1012.9
20260901004825 32 150 0.0 0.0 0.00 0.00 0.00 43 1015.9
20260901004526 32 156 0.0 0.0 0.00 0.00 0.00 43 1012.9
20260901004322 32 149 0.0 0.0 0.00 0.00 0.00 43 1015.8
20260901004007 32 139 0.0 0.0 0.00 0.00 0.00 42 1012.9
20260901003840 33 116 0.0 0.0 0.00 0.00 0.00 42 1015.9
20260901003556 32 144 0.0 0.0 0.00 0.00 0.00 42 1013.0
20260901003332 33 156 0.0 0.0 0.00 0.00 0.00 42 1015.9
20260901003049 32 158 0.0 0.0 0.00 0.00 0.00 41 1012.9
20260901002829 33 160 0.0 0.0 0.00 0.00 0.00 41 1015.9
20260901002543 33 147 0.0 0.0 0.00 0.00 0.00 41 1012.9
20260901002326 33 160 0.0 0.0 0.00 0.00 0.00 41 1015.8
20260901002032 33 158 0.0 0.0 0.00 0.00 0.00 40 1012.8
20260901001824 33 144 0.0 0.0 0.00 0.00 0.00 40 1015.8
20260901001524 33 139 0.0 0.0 0.00 0.00 0.00 40 1012.7
20260901001321 33 119 0.0 0.0 0.00 0.00 0.00 40 1015.7
20260901001007 33 149 0.0 22.5 0.00 0.00 0.00 40 1012.7
20260901000818 33 119 0.0 22.5 0.00 0.00 0.00 40 1015.7
20260901000557 33 168 9.7 22.5 0.00 0.00 0.00 40 1012.7
20260901000317 33 152 11.3 17.7 0.00 0.00 0.00 40 1015.6
20260901000048 33 154 8.0 17.7 0.00 0.00 0.00 41 1012.6
20260831235815 33 131 9.7 17.7 0.00 0.00 0.00 40 1015.5
20260831235538 33 143 9.7 24.1 0.00 0.00 0.00 39 1012.6
20260831235332 34 135 12.9 24.1 0.00 0.00 0.00 39 1015.5
20260831235032 33 141 9.7 24.1 0.00 0.00 0.00 38 1012.5
20260831234830 34 137 16.1 24.1 0.00 0.00 0.00 38 1015.6
20260831234512 33 145 12.9 24.1 0.00 0.00 0.00 39 1012.6
20260831234349 34 129 16.1 24.1 0.00 0.00 0.00 38 1015.6
20260831234044 33 156 9.7 20.9 0.00 0.00 0.00 38 1012.6
20260831233825 34 146 12.9 19.3 0.00 0.00 0.00 38 1015.6
20260831233535 34 135 9.7 19.3 0.00 0.00 0.00 38 1012.7
20260831233322 34 141 11.3 19.3 0.00 0.00 0.00 38 1015.6
20260831233026 34 139 11.3 19.3 0.00 0.00 0.00 37 1012.6
20260831232820 34 153 9.7 19.3 0.00 0.00 0.00 37 1015.6
20260831232508 34 145 9.7 19.3 0.00 0.00 0.00 36 1012.6
20260831232317 34 136 9.7 19.3 0.00 0.00 0.00 37 1015.7
20260831232102 34 39 12.9 19.3 0.00 0.00 0.00 37 1012.7
20260831231814 34 136 8.0 19.3 0.00 0.00 0.00 37 1015.7
20260831231555 34 98 6.4 19.3 0.00 0.00 0.00 37 1012.7
20260831231331 34 166 11.3 19.3 0.00 0.00 0.00 37 1015.7
20260831231044 34 159 0.0 11.3 0.00 0.00 0.00 37 1012.7
20260831230829 35 142 0.0 11.3 0.00 0.00 0.00 38 1015.7
20260831230533 34 122 0.0 17.7 0.00 0.00 0.00 38 1012.6
20260831230325 35 125 6.4 19.3 0.00 0.00 0.00 37 1015.6
20260831230024 34 130 9.7 19.3 0.00 0.00 0.00 37 1012.7
20260831225820 35 94 9.7 19.3 0.00 0.00 0.00 37 1015.7
20260831225547 34 103 6.4 20.9 0.00 0.00 0.00 37 1012.7
20260831225318 35 137 9.7 20.9 0.00 0.00 0.00 37 1015.7
20260831225018 34 141 11.3 20.9 0.00 0.00 0.00 36 1012.8
20260831224815 35 132 9.7 19.3 0.00 0.00 0.00 36 1015.8
20260831224602 34 112 3.2 14.5 0.00 0.00 0.00 36 1012.8
20260831224354 35 145 0.0 0.0 0.00 0.00 0.00 36 1015.8
20260831224032 34 104 0.0 0.0 0.00 0.00 0.00 36 1012.9
20260831223830 35 152 0.0 0.0 0.00 0.00 0.00 35 1015.8
20260831223514 34 122 0.0 0.0 0.00 0.00 0.00 36 1012.8
20260831223328 35 140 0.0 0.0 0.00 0.00 0.00 36 1015.8
20260831223004 34 106 0.0 0.0 0.00 0.00 0.00 36 1012.9
20260831222825 34 158 0.0 0.0 0.00 0.00 0.00 36 1015.9
20260831222558 34 164 0.0 0.0 0.00 0.00 0.00 36 1012.8
20260831222322 34 174 0.0 0.0 0.00 0.00 0.00 36 1015.9
20260831222047 34 170 0.0 0.0 0.00 0.00 0.00 36 1013.0
20260831221819 34 166 0.0 0.0 0.00 0.00 0.00 36 1016.0
20260831221539 34 158 0.0 0.0 0.00 0.00 0.00 37 1013.0
20260831221316 34 193 0.0 0.0 0.00 0.00 0.00 36 1016.0
20260831221033 33 194 0.0 0.0 0.00 0.00 0.00 36 1013.0
20260831220813 34 163 0.0 0.0 0.00 0.00 0.00 36 1016.1
20260831220514 33 164 0.0 0.0 0.00 0.00 0.00 38 1013.1
20260831220331 34 161 0.0 0.0 0.00 0.00 0.00 37 1016.1
20260831220006 33 144 0.0 0.0 0.00 0.00 0.00 39 1013.2
20260831215851 34 145 0.0 0.0 0.00 0.00 0.00 39 1016.1
20260831215538 33 147 0.0 0.0 0.00 0.00 0.00 40 1013.2
20260831215330 34 170 0.0 0.0 0.00 0.00 0.00 39 1016.3
20260831215031 34 115 0.0 0.0 0.00 0.00 0.00 38 1013.3
20260831214826 34 156 0.0 0.0 0.00 0.00 0.00 37 1016.3
20260831214526 34 147 0.0 0.0 0.00 0.00 0.00 38 1013.3
20260831214322 34 133 0.0 0.0 0.00 0.00 0.00 38 1016.4
20260831214026 34 129 0.0 0.0 0.00 0.00 0.00 38 1013.4
20260831213822 34 149 0.0 0.0 0.00 0.00 0.00 38 1016.4
20260831213519 34 108 0.0 0.0 0.00 0.00 0.00 38 1013.4
20260831213319 34 149 0.0 0.0 0.00 0.00 0.00 38 1016.5
20260831213044 34 142 0.0 0.0 0.00 0.00 0.00 37 1013.4
20260831212815 34 147 0.0 0.0 0.00 0.00 0.00 38 1016.5
20260831212536 34 168 0.0 0.0 0.00 0.00 0.00 38 1013.5
20260831212313 34 159 0.0 0.0 0.00 0.00 0.00 38 1016.5
20260831212032 34 164 0.0 0.0 0.00 0.00 0.00 39 1013.5
20260831211813 34 131 0.0 0.0 0.00 0.00 0.00 39 1016.5